| time (UTC) | temp C | wind direction | speed KPH | gust KPH | rain 1hr cm | rain 24hr cm | rain mn cm | humidity % | barometer mb |
| 20260509190009 | 20 | 197 | 0.0 | 8.0 | 0.00 | 0.05 | 0.00 | 53 | 1007.8 |
| 20260509185908 | 20 | 113 | 1.6 | 8.0 | 0.00 | 0.18 | 0.00 | 54 | 1008.2 |
| 20260509185339 | 20 | 131 | 3.2 | 6.4 | 0.00 | 0.18 | 0.00 | 56 | 1008.1 |
| 20260509184852 | 20 | 131 | 1.6 | 8.0 | 0.00 | 0.18 | 0.00 | 58 | 1008.2 |
| 20260509184546 | 19 | 178 | 1.6 | 8.0 | 0.00 | 0.18 | 0.00 | 55 | 1007.9 |
| 20260509184345 | 20 | 304 | 1.6 | 8.0 | 0.00 | 0.18 | 0.00 | 57 | 1008.3 |
| 20260509183856 | 19 | 167 | 3.2 | 9.7 | 0.00 | 0.18 | 0.00 | 60 | 1008.3 |
| 20260509183349 | 19 | 207 | 1.6 | 4.8 | 0.00 | 0.18 | 0.00 | 62 | 1008.4 |
| 20260509183058 | 18 | 82 | 0.0 | 6.4 | 0.00 | 0.18 | 0.00 | 61 | 1008.1 |
| 20260509182957 | 18 | 82 | 1.6 | 6.4 | 0.00 | 0.18 | 0.00 | 61 | 1008.4 |
| 20260509182348 | 18 | 77 | 3.2 | 9.7 | 0.00 | 0.18 | 0.00 | 61 | 1008.5 |
| 20260509181900 | 18 | 200 | 3.2 | 9.7 | 0.00 | 0.18 | 0.00 | 61 | 1008.6 |
| 20260509181559 | 18 | 161 | 3.2 | 9.7 | 0.00 | 0.18 | 0.00 | 60 | 1008.3 |
| 20260509181351 | 18 | 314 | 1.6 | 4.8 | 0.00 | 0.18 | 0.00 | 59 | 1008.6 |
| 20260509180843 | 17 | 134 | 1.6 | 4.8 | 0.00 | 0.18 | 0.00 | 60 | 1008.6 |
| 20260509180354 | 17 | 302 | 3.2 | 8.0 | 0.00 | 0.18 | 0.00 | 62 | 1008.6 |
| 20260509180043 | 17 | 156 | 1.6 | 8.0 | 0.00 | 0.18 | 0.00 | 61 | 1008.4 |
| 20260509175843 | 17 | 161 | 4.8 | 8.0 | 0.00 | 0.38 | 0.00 | 60 | 1008.7 |
| 20260509175357 | 18 | 153 | 3.2 | 9.7 | 0.00 | 0.38 | 0.00 | 61 | 1008.8 |
| 20260509174849 | 18 | 209 | 3.2 | 9.7 | 0.00 | 0.38 | 0.00 | 64 | 1008.9 |
| 20260509174542 | 17 | 296 | 0.0 | 4.8 | 0.00 | 0.38 | 0.00 | 67 | 1008.6 |
| 20260509174340 | 17 | 296 | 1.6 | 4.8 | 0.00 | 0.38 | 0.00 | 67 | 1008.9 |
| 20260509173852 | 17 | 263 | 3.2 | 8.0 | 0.00 | 0.38 | 0.00 | 69 | 1009.1 |
| 20260509173344 | 17 | 187 | 3.2 | 8.0 | 0.00 | 0.38 | 0.00 | 67 | 1009.0 |
| 20260509173038 | 17 | 206 | 1.6 | 6.4 | 0.00 | 0.38 | 0.00 | 68 | 1008.8 |
| 20260509172838 | 17 | 56 | 1.6 | 4.8 | 0.00 | 0.38 | 0.00 | 70 | 1009.1 |
| 20260509172350 | 17 | 96 | 0.0 | 4.8 | 0.00 | 0.38 | 0.00 | 71 | 1009.2 |
| 20260509171842 | 16 | 81 | 1.6 | 3.2 | 0.00 | 0.38 | 0.00 | 74 | 1009.2 |
| 20260509171555 | 15 | 81 | 0.0 | 1.6 | 0.00 | 0.38 | 0.00 | 79 | 1009.0 |
| 20260509171354 | 15 | 81 | 0.0 | 1.6 | 0.00 | 0.38 | 0.00 | 78 | 1009.4 |
| 20260509170847 | 15 | 81 | 0.0 | 3.2 | 0.00 | 0.38 | 0.00 | 75 | 1009.6 |
| 20260509170358 | 15 | 81 | 0.0 | 3.2 | 0.00 | 0.38 | 0.00 | 77 | 1009.6 |
| 20260509170056 | 15 | 81 | 0.0 | 3.2 | 0.00 | 0.38 | 0.00 | 78 | 1009.4 |
| 20260509165849 | 15 | 81 | 0.0 | 3.2 | 0.00 | 0.53 | 0.00 | 80 | 1009.7 |
| 20260509165340 | 15 | 81 | 0.0 | 3.2 | 0.00 | 0.53 | 0.00 | 80 | 1009.7 |
| 20260509164853 | 15 | 81 | 0.0 | 4.8 | 0.00 | 0.53 | 0.00 | 82 | 1009.8 |
| 20260509164554 | 15 | 81 | 0.0 | 4.8 | 0.00 | 0.53 | 0.00 | 82 | 1009.6 |
| 20260509163840 | 15 | 162 | 0.0 | 3.2 | 0.00 | 0.53 | 0.00 | 84 | 1010.0 |
| 20260509163045 | 14 | 65 | 0.0 | 0.0 | 0.00 | 0.53 | 0.00 | 84 | 1010.0 |
| 20260509162844 | 14 | 65 | 0.0 | 0.0 | 0.00 | 0.53 | 0.00 | 84 | 1010.3 |
| 20260509162355 | 15 | 65 | 0.0 | 0.0 | 0.00 | 0.53 | 0.00 | 84 | 1010.3 |
| 20260509161848 | 15 | 65 | 0.0 | 3.2 | 0.00 | 0.53 | 0.00 | 82 | 1010.2 |
| 20260509161554 | 14 | 65 | 0.0 | 3.2 | 0.00 | 0.53 | 0.00 | 82 | 1009.9 |
| 20260509161344 | 15 | 65 | 0.0 | 3.2 | 0.00 | 0.53 | 0.00 | 82 | 1010.2 |
| 20260509160856 | 15 | 65 | 0.0 | 1.6 | 0.00 | 0.53 | 0.00 | 84 | 1010.3 |
| 20260509160349 | 15 | 65 | 0.0 | 3.2 | 0.00 | 0.53 | 0.00 | 85 | 1010.3 |
| 20260509160040 | 14 | 65 | 0.0 | 4.8 | 0.00 | 0.53 | 0.00 | 84 | 1010.0 |
| 20260509155838 | 14 | 53 | 0.0 | 4.8 | 0.00 | 0.76 | 0.00 | 84 | 1010.2 |
| 20260509155351 | 14 | 53 | 0.0 | 3.2 | 0.00 | 0.76 | 0.00 | 85 | 1010.2 |
| 20260509154842 | 14 | 209 | 0.0 | 0.0 | 0.00 | 0.76 | 0.00 | 84 | 1010.2 |
| 20260509154356 | 14 | 209 | 0.0 | 0.0 | 0.00 | 0.76 | 0.00 | 85 | 1010.3 |
| 20260509153847 | 14 | 209 | 0.0 | 0.0 | 0.00 | 0.76 | 0.00 | 85 | 1010.4 |
| 20260509153341 | 13 | 209 | 0.0 | 0.0 | 0.00 | 0.76 | 0.00 | 87 | 1010.4 |
| 20260509153054 | 13 | 209 | 0.0 | 0.0 | 0.00 | 0.76 | 0.00 | 87 | 1010.1 |
| 20260509152853 | 13 | 209 | 0.0 | 0.0 | 0.00 | 0.76 | 0.00 | 86 | 1010.4 |
| 20260509152404 | 13 | 209 | 0.0 | 0.0 | 0.00 | 0.76 | 0.00 | 85 | 1010.4 |
| 20260509151548 | 13 | 209 | 0.0 | 0.0 | 0.00 | 0.76 | 0.00 | 88 | 1010.0 |
| 20260509151347 | 13 | 209 | 0.0 | 0.0 | 0.00 | 0.76 | 0.00 | 87 | 1010.2 |
| 20260509150840 | 13 | 209 | 0.0 | 0.0 | 0.00 | 0.76 | 0.00 | 87 | 1010.4 |
| 20260509150414 | 13 | 209 | 0.0 | 0.0 | 0.00 | 0.76 | 0.00 | 88 | 1010.4 |
| 20260509150004 | 13 | 209 | 0.0 | 0.0 | 0.00 | 0.76 | 0.00 | 90 | 1010.2 |
| 20260509145903 | 13 | 209 | 0.0 | 0.0 | 0.00 | 1.07 | 0.00 | 90 | 1010.5 |
| 20260509145355 | 12 | 209 | 0.0 | 0.0 | 0.00 | 1.07 | 0.00 | 91 | 1010.6 |
| 20260509144847 | 12 | 209 | 0.0 | 0.0 | 0.00 | 1.07 | 0.00 | 92 | 1010.3 |
| 20260509144541 | 12 | 209 | 0.0 | 0.0 | 0.00 | 1.07 | 0.00 | 92 | 1010.1 |
| 20260509144339 | 12 | 209 | 0.0 | 0.0 | 0.00 | 1.07 | 0.00 | 91 | 1010.4 |
| 20260509143849 | 13 | 209 | 0.0 | 0.0 | 0.00 | 1.07 | 0.00 | 93 | 1010.3 |
| 20260509143342 | 12 | 209 | 0.0 | 0.0 | 0.00 | 1.07 | 0.00 | 93 | 1010.3 |
| 20260509143017 | 12 | 209 | 0.0 | 0.0 | 0.00 | 1.07 | 0.00 | 93 | 1010.1 |
| 20260509142916 | 12 | 209 | 0.0 | 0.0 | 0.00 | 1.07 | 0.00 | 93 | 1010.4 |
| 20260509142346 | 12 | 209 | 0.0 | 0.0 | 0.00 | 1.07 | 0.00 | 94 | 1010.6 |
| 20260509141839 | 11 | 209 | 0.0 | 0.0 | 0.00 | 1.07 | 0.00 | 94 | 1010.7 |
| 20260509141511 | 11 | 209 | 0.0 | 0.0 | 0.00 | 1.07 | 0.00 | 95 | 1010.5 |
| 20260509141411 | 11 | 209 | 0.0 | 0.0 | 0.00 | 1.07 | 0.00 | 95 | 1010.7 |
| 20260509140844 | 11 | 209 | 0.0 | 0.0 | 0.00 | 1.07 | 0.00 | 95 | 1010.8 |
| 20260509140029 | 11 | 208 | 0.0 | 0.0 | 0.00 | 1.07 | 0.00 | 96 | 1010.5 |
| 20260509134529 | 10 | 208 | 0.0 | 0.0 | 0.00 | 1.19 | 0.00 | 96 | 1010.3 |
| 20260509133028 | 10 | 208 | 0.0 | 0.0 | 0.00 | 1.19 | 0.00 | 96 | 1010.3 |
| 20260509131527 | 10 | 208 | 0.0 | 0.0 | 0.00 | 1.19 | 0.00 | 96 | 1010.1 |
| 20260509130047 | 10 | 208 | 0.0 | 0.0 | 0.00 | 1.19 | 0.00 | 96 | 1010.4 |
| 20260509124529 | 10 | 208 | 0.0 | 0.0 | 0.00 | 1.19 | 0.00 | 96 | 1010.5 |
| 20260509123025 | 10 | 68 | 3.2 | 4.8 | 0.00 | 1.19 | 0.00 | 95 | 1010.3 |
| 20260509121528 | 10 | 305 | 0.0 | 3.2 | 0.00 | 1.19 | 0.00 | 95 | 1010.4 |
| 20260509120030 | 10 | 88 | 0.0 | 0.0 | 0.00 | 1.19 | 0.00 | 94 | 1010.6 |
| 20260509114521 | 10 | 174 | 0.0 | 1.6 | 0.00 | 1.19 | 0.00 | 91 | 1010.6 |
| 20260509113018 | 10 | 72 | 0.0 | 0.0 | 0.00 | 1.19 | 0.00 | 88 | 1010.4 |
| 20260509111518 | 10 | 72 | 0.0 | 0.0 | 0.00 | 1.19 | 0.00 | 85 | 1010.2 |
| 20260509110020 | 10 | 72 | 0.0 | 0.0 | 0.00 | 1.19 | 0.00 | 85 | 1010.2 |
| 20260509104516 | 10 | 72 | 0.0 | 0.0 | 0.00 | 1.19 | 0.00 | 84 | 1010.1 |
| 20260509103018 | 10 | 72 | 0.0 | 0.0 | 0.00 | 1.19 | 0.00 | 84 | 1009.7 |
| 20260509101515 | 10 | 72 | 0.0 | 3.2 | 0.00 | 1.19 | 0.00 | 84 | 1009.6 |
| 20260509100020 | 10 | 72 | 0.0 | 0.0 | 0.00 | 1.19 | 0.00 | 85 | 1009.6 |
| 20260509094514 | 10 | 72 | 0.0 | 0.0 | 0.00 | 1.19 | 0.00 | 85 | 1009.7 |
| 20260509093014 | 10 | 72 | 0.0 | 3.2 | 0.00 | 1.19 | 0.00 | 86 | 1009.7 |
| 20260509091513 | 10 | 132 | 0.0 | 1.6 | 0.00 | 1.19 | 0.00 | 85 | 1009.6 |
| 20260509090013 | 10 | 132 | 0.0 | 0.0 | 0.00 | 1.19 | 0.00 | 85 | 1009.4 |
| 20260509084525 | 10 | 132 | 0.0 | 0.0 | 0.00 | 1.19 | 0.00 | 86 | 1009.4 |
| 20260509083020 | 10 | 132 | 0.0 | 0.0 | 0.00 | 1.19 | 0.00 | 86 | 1009.6 |
| 20260509081513 | 10 | 132 | 0.0 | 1.6 | 0.00 | 1.19 | 0.00 | 85 | 1009.5 |
| 20260509080008 | 10 | 132 | 0.0 | 0.0 | 0.00 | 1.19 | 0.00 | 85 | 1009.6 |
| 20260509074510 | 10 | 132 | 0.0 | 0.0 | 0.00 | 1.19 | 0.00 | 85 | 1009.7 |
| 20260509073006 | 10 | 132 | 0.0 | 0.0 | 0.00 | 1.19 | 0.00 | 84 | 1009.8 |
| 20260509071504 | 10 | 132 | 0.0 | 0.0 | 0.00 | 1.19 | 0.00 | 84 | 1009.8 |
| 20260509070004 | 10 | 132 | 0.0 | 0.0 | 0.00 | 1.19 | 0.00 | 83 | 1009.8 |
| 20260509064503 | 10 | 132 | 0.0 | 0.0 | 0.00 | 1.19 | 0.00 | 83 | 1009.9 |
| 20260509063001 | 10 | 132 | 0.0 | 0.0 | 0.00 | 1.19 | 0.00 | 81 | 1009.9 |
| 20260509061615 | 10 | 132 | 0.0 | 0.0 | 0.00 | 1.19 | 0.00 | 82 | 1010.2 |
| 20260509060131 | 10 | 132 | 0.0 | 0.0 | 0.00 | 1.19 | 0.00 | 82 | 1010.3 |
| 20260509054601 | 11 | 132 | 0.0 | 0.0 | 0.00 | 1.19 | 0.00 | 81 | 1010.4 |
| 20260509054355 | 11 | 132 | 0.0 | 0.0 | 0.00 | 0.00 | 0.00 | 81 | 1010.3 |
| 20260509053846 | 11 | 132 | 0.0 | 0.0 | 0.00 | 1.19 | 0.00 | 80 | 1010.5 |
| 20260509053339 | 11 | 132 | 0.0 | 1.6 | 0.00 | 1.19 | 0.00 | 80 | 1010.5 |
| 20260509053052 | 11 | 132 | 0.0 | 3.2 | 0.00 | 1.19 | 0.00 | 80 | 1010.5 |
| 20260509052851 | 11 | 132 | 0.0 | 3.2 | 0.00 | 1.19 | 0.00 | 79 | 1010.6 |
| 20260509052344 | 11 | 132 | 1.6 | 3.2 | 0.00 | 1.19 | 0.00 | 80 | 1010.7 |
| 20260509051855 | 11 | 132 | 0.0 | 0.0 | 0.00 | 1.19 | 0.00 | 80 | 1010.5 |
| 20260509051508 | 11 | 132 | 0.0 | 0.0 | 0.00 | 1.19 | 0.00 | 80 | 1010.5 |
| 20260509051407 | 11 | 132 | 0.0 | 0.0 | 0.00 | 1.19 | 0.00 | 80 | 1010.6 |
| 20260509050838 | 11 | 132 | 0.0 | 0.0 | 0.00 | 1.19 | 0.00 | 79 | 1010.6 |
| 20260509050352 | 11 | 132 | 0.0 | 0.0 | 0.00 | 1.19 | 0.00 | 80 | 1010.6 |
| 20260509050058 | 11 | 132 | 0.0 | 0.0 | 0.00 | 1.19 | 0.00 | 80 | 1010.5 |
| 20260509045840 | 11 | 132 | 0.0 | 0.0 | 0.00 | 1.19 | 0.00 | 80 | 1010.6 |
| 20260509045353 | 11 | 132 | 0.0 | 0.0 | 0.00 | 1.19 | 0.00 | 79 | 1010.6 |
| 20260509044844 | 11 | 132 | 0.0 | 0.0 | 0.00 | 1.19 | 0.00 | 78 | 1010.5 |
| 20260509044552 | 11 | 132 | 0.0 | 0.0 | 0.00 | 1.19 | 0.00 | 78 | 1010.4 |
| 20260509044337 | 11 | 132 | 0.0 | 0.0 | 0.00 | 1.19 | 0.00 | 78 | 1010.5 |
| 20260509043850 | 11 | 132 | 0.0 | 0.0 | 0.00 | 1.19 | 0.00 | 78 | 1010.5 |
| 20260509043347 | 11 | 132 | 0.0 | 0.0 | 0.00 | 1.19 | 0.00 | 78 | 1010.6 |
| 20260509043040 | 11 | 132 | 0.0 | 0.0 | 0.00 | 1.19 | 0.00 | 78 | 1010.5 |
| 20260509042839 | 11 | 132 | 0.0 | 0.0 | 0.00 | 1.19 | 0.00 | 78 | 1010.6 |
| 20260509042412 | 11 | 132 | 0.0 | 1.6 | 0.00 | 1.19 | 0.00 | 78 | 1010.6 |
| 20260509041543 | 11 | 132 | 0.0 | 1.6 | 0.00 | 1.19 | 0.00 | 77 | 1010.5 |
| 20260509041342 | 11 | 132 | 0.0 | 1.6 | 0.00 | 1.19 | 0.00 | 77 | 1010.6 |
| 20260509040838 | 11 | 132 | 0.0 | 0.0 | 0.00 | 1.19 | 0.00 | 78 | 1010.7 |
| 20260509040352 | 11 | 132 | 0.0 | 0.0 | 0.00 | 1.19 | 0.00 | 77 | 1010.6 |
| 20260509040043 | 11 | 132 | 0.0 | 1.6 | 0.00 | 1.19 | 0.00 | 77 | 1010.5 |
| 20260509035842 | 12 | 132 | 0.0 | 1.6 | 0.00 | 1.19 | 1.19 | 76 | 1010.7 |
| 20260509035415 | 12 | 132 | 0.0 | 4.8 | 0.00 | 1.19 | 1.19 | 76 | 1010.6 |
| 20260509034845 | 12 | 132 | 3.2 | 4.8 | 0.00 | 1.19 | 1.19 | 76 | 1010.6 |
| 20260509034542 | 11 | 132 | 1.6 | 4.8 | 0.00 | 1.19 | 1.19 | 77 | 1010.4 |
| 20260509034339 | 12 | 132 | 1.6 | 4.8 | 0.00 | 1.19 | 1.19 | 76 | 1010.5 |
| 20260509033851 | 12 | 131 | 1.6 | 3.2 | 0.00 | 1.19 | 1.19 | 75 | 1010.5 |
| 20260509033343 | 12 | 77 | 0.0 | 1.6 | 0.00 | 1.19 | 1.19 | 75 | 1010.4 |
| 20260509033056 | 12 | 77 | 0.0 | 1.6 | 0.00 | 1.19 | 1.19 | 74 | 1010.2 |
| 20260509032855 | 12 | 77 | 0.0 | 1.6 | 0.00 | 1.19 | 1.19 | 73 | 1010.2 |
| 20260509032406 | 12 | 77 | 0.0 | 1.6 | 0.00 | 1.19 | 1.19 | 73 | 1010.4 |
| 20260509031837 | 12 | 77 | 1.6 | 3.2 | 0.00 | 1.19 | 1.19 | 74 | 1010.5 |
| 20260509031550 | 12 | 77 | 0.0 | 3.2 | 0.00 | 1.19 | 1.19 | 73 | 1010.5 |
| 20260509031349 | 12 | 77 | 0.0 | 3.2 | 0.00 | 1.19 | 1.19 | 73 | 1010.5 |
| 20260509030921 | 12 | 77 | 1.6 | 4.8 | 0.00 | 1.19 | 1.19 | 73 | 1010.5 |
| 20260509030348 | 12 | 77 | 1.6 | 4.8 | 0.00 | 1.19 | 1.19 | 74 | 1010.6 |
| 20260509030043 | 12 | 77 | 1.6 | 4.8 | 0.00 | 1.19 | 1.19 | 73 | 1010.5 |
| 20260509025838 | 13 | 77 | 3.2 | 6.4 | 0.00 | 1.19 | 1.19 | 71 | 1010.5 |
| 20260509025349 | 12 | 344 | 3.2 | 6.4 | 0.00 | 1.19 | 1.19 | 71 | 1010.8 |
| 20260509024900 | 13 | 51 | 3.2 | 4.8 | 0.00 | 1.19 | 1.19 | 73 | 1010.7 |
| 20260509024552 | 12 | 97 | 0.0 | 4.8 | 0.00 | 1.19 | 1.19 | 73 | 1010.7 |
| 20260509024351 | 13 | 223 | 0.0 | 3.2 | 0.00 | 1.19 | 1.19 | 72 | 1011.0 |
| 20260509023843 | 13 | 228 | 1.6 | 3.2 | 0.00 | 1.19 | 1.19 | 71 | 1011.1 |
| 20260509023355 | 13 | 179 | 0.0 | 0.0 | 0.00 | 1.19 | 1.19 | 71 | 1011.0 |
| 20260509023012 | 12 | 179 | 0.0 | 0.0 | 0.00 | 1.19 | 1.19 | 70 | 1011.0 |
| 20260509022907 | 13 | 179 | 0.0 | 3.2 | 0.00 | 1.19 | 1.19 | 70 | 1011.1 |
| 20260509022358 | 13 | 179 | 0.0 | 3.2 | 0.00 | 1.19 | 1.19 | 68 | 1011.1 |
| 20260509021849 | 12 | 63 | 0.0 | 6.4 | 0.00 | 1.19 | 1.19 | 66 | 1011.0 |
| 20260509021542 | 12 | 63 | 0.0 | 6.4 | 0.00 | 1.19 | 1.19 | 67 | 1010.8 |
| 20260509021341 | 13 | 308 | 3.2 | 6.4 | 0.00 | 1.19 | 1.19 | 66 | 1010.7 |
| 20260509020913 | 13 | 59 | 0.0 | 1.6 | 0.00 | 1.19 | 1.19 | 67 | 1010.7 |
| 20260509020345 | 13 | 59 | 0.0 | 1.6 | 0.00 | 1.19 | 1.19 | 67 | 1010.8 |
| 20260509020058 | 12 | 59 | 0.0 | 1.6 | 0.00 | 1.19 | 1.19 | 67 | 1010.9 |
| 20260509015853 | 13 | 59 | 0.0 | 1.6 | 0.00 | 1.19 | 1.19 | 66 | 1010.9 |
| 20260509015345 | 13 | 59 | 0.0 | 1.6 | 0.00 | 1.19 | 1.19 | 65 | 1010.9 |
| 20260509014838 | 13 | 59 | 0.0 | 1.6 | 0.00 | 1.19 | 1.19 | 64 | 1010.8 |
| 20260509014551 | 13 | 59 | 0.0 | 1.6 | 0.00 | 1.19 | 1.19 | 64 | 1010.7 |
| 20260509014350 | 13 | 59 | 0.0 | 1.6 | 0.00 | 1.19 | 1.19 | 64 | 1010.8 |
| 20260509013839 | 13 | 59 | 0.0 | 0.0 | 0.00 | 1.19 | 1.19 | 64 | 1010.8 |
| 20260509013350 | 13 | 59 | 0.0 | 0.0 | 0.00 | 1.19 | 1.19 | 64 | 1010.8 |
| 20260509013001 | 12 | 59 | 0.0 | 0.0 | 0.00 | 1.19 | 1.19 | 65 | 1010.7 |
| 20260509012901 | 13 | 59 | 0.0 | 0.0 | 0.00 | 1.19 | 1.19 | 65 | 1010.7 |
| 20260509012351 | 13 | 59 | 0.0 | 1.6 | 0.00 | 1.19 | 1.19 | 65 | 1010.7 |
| 20260509011842 | 13 | 59 | 1.6 | 3.2 | 0.00 | 1.19 | 1.19 | 65 | 1010.6 |
| 20260509011518 | 12 | 59 | 0.0 | 3.2 | 0.00 | 1.19 | 1.19 | 64 | 1010.6 |
| 20260509011416 | 13 | 59 | 1.6 | 3.2 | 0.00 | 1.19 | 1.19 | 65 | 1010.6 |
| 20260509010846 | 13 | 59 | 0.0 | 0.0 | 0.00 | 1.19 | 1.19 | 64 | 1010.5 |
| 20260509010357 | 13 | 59 | 526.3 | 526.3 | 0.00 | 0.00 | 1.19 | 63 | 1010.3 |
| 20260509010007 | 13 | 59 | 0.0 | 3.2 | 0.00 | 1.19 | 1.19 | 62 | 1010.5 |
| 20260509005906 | 13 | 59 | 0.0 | 3.2 | 0.00 | 1.19 | 1.19 | 63 | 1010.4 |
| 20260509005337 | 13 | 66 | 0.0 | 3.2 | 0.00 | 1.19 | 1.19 | 60 | 1010.3 |
| 20260509004850 | 13 | 66 | 0.0 | 0.0 | 0.00 | 1.19 | 1.19 | 59 | 1010.4 |
| 20260509004543 | 13 | 66 | 0.0 | 0.0 | 0.00 | 1.19 | 1.19 | 58 | 1010.4 |
| 20260509004342 | 13 | 66 | 0.0 | 0.0 | 0.00 | 1.19 | 1.19 | 58 | 1010.4 |
| 20260509003909 | 13 | 66 | 0.0 | 0.0 | 0.00 | 1.19 | 1.19 | 59 | 1010.4 |
| 20260509003340 | 14 | 66 | 0.0 | 0.0 | 0.00 | 1.19 | 1.19 | 58 | 1010.4 |
| 20260509003100 | 13 | 66 | 0.0 | 0.0 | 0.00 | 1.19 | 1.19 | 58 | 1010.4 |
| 20260509002851 | 14 | 66 | 0.0 | 0.0 | 0.00 | 1.19 | 1.19 | 58 | 1010.5 |
| 20260509002423 | 14 | 66 | 0.0 | 0.0 | 0.00 | 1.19 | 1.19 | 58 | 1010.4 |
| 20260509001851 | 15 | 66 | 0.0 | 0.0 | 0.00 | 1.19 | 1.19 | 55 | 1010.3 |
| 20260509001523 | 15 | 66 | 0.0 | 0.0 | 0.00 | 1.19 | 1.19 | 55 | 1010.3 |
| 20260509001422 | 15 | 66 | 0.0 | 0.0 | 0.00 | 0.00 | 1.19 | 54 | 1010.1 |
| 20260509000849 | 15 | 66 | 0.0 | 0.0 | 0.00 | 1.19 | 1.19 | 54 | 1010.3 |
| 20260509000342 | 15 | 66 | 0.0 | 0.0 | 0.00 | 1.19 | 1.19 | 52 | 1010.2 |
| 20260509000016 | 15 | 66 | 0.0 | 0.0 | 0.00 | 1.19 | 1.19 | 52 | 1010.1 |
| 20260508235911 | 16 | 66 | 0.0 | 0.0 | 0.00 | 1.19 | 1.19 | 52 | 1010.2 |
| 20260508235341 | 16 | 66 | 0.0 | 0.0 | 0.00 | 1.19 | 1.19 | 50 | 1010.2 |
| 20260508234912 | 16 | 66 | 0.0 | 0.0 | 0.00 | 1.19 | 1.19 | 51 | 1010.2 |
| 20260508234542 | 16 | 66 | 0.0 | 0.0 | 0.00 | 1.19 | 1.19 | 50 | 1010.1 |
| 20260508234342 | 17 | 66 | 0.0 | 0.0 | 0.00 | 1.19 | 1.19 | 52 | 1010.1 |
| 20260508233915 | 17 | 66 | 0.0 | 0.0 | 0.00 | 1.19 | 1.19 | 48 | 1010.1 |
| 20260508233345 | 17 | 66 | 0.0 | 1.6 | 0.00 | 1.19 | 1.19 | 47 | 1010.1 |
| 20260508233019 | 17 | 66 | 0.0 | 1.6 | 0.00 | 1.19 | 1.19 | 46 | 1009.9 |
| 20260508232857 | 18 | 66 | 0.0 | 0.0 | 0.00 | 1.19 | 1.19 | 45 | 1010.0 |
| 20260508232349 | 18 | 66 | 0.0 | 1.6 | 0.00 | 1.19 | 1.19 | 43 | 1010.0 |
| 20260508231859 | 18 | 66 | 0.0 | 1.6 | 0.00 | 1.19 | 1.19 | 45 | 1009.9 |
| 20260508231557 | 18 | 66 | 0.0 | 1.6 | 0.00 | 1.19 | 1.19 | 44 | 1009.8 |
| 20260508231351 | 18 | 66 | 0.0 | 4.8 | 0.00 | 1.19 | 1.19 | 43 | 1010.0 |
| 20260508230903 | 19 | 66 | 0.0 | 4.8 | 0.00 | 1.19 | 1.19 | 38 | 1010.0 |
| 20260508230415 | 19 | 24 | 3.2 | 4.8 | 0.00 | 1.19 | 1.19 | 38 | 1010.0 |
| 20260508230044 | 19 | 317 | 3.2 | 4.8 | 0.00 | 1.19 | 1.19 | 38 | 1009.9 |
| 20260508225842 | 20 | 324 | 3.2 | 4.8 | 0.00 | 1.19 | 1.19 | 41 | 1010.0 |
| 20260508225354 | 20 | 49 | 1.6 | 8.0 | 0.00 | 1.19 | 1.19 | 36 | 1010.0 |
| 20260508224905 | 20 | 276 | 3.2 | 8.0 | 0.00 | 1.19 | 1.19 | 42 | 1010.0 |
| 20260508224537 | 20 | 316 | 0.0 | 6.4 | 0.00 | 1.19 | 1.19 | 35 | 1009.8 |
| 20260508224337 | 20 | 48 | 3.2 | 6.4 | 0.00 | 1.19 | 1.19 | 36 | 1010.0 |
| 20260508223849 | 20 | 355 | 1.6 | 4.8 | 0.00 | 1.19 | 1.19 | 37 | 1009.9 |
| 20260508223344 | 20 | 230 | 1.6 | 4.8 | 0.00 | 1.19 | 1.19 | 37 | 1010.0 |
| 20260508223141 | 19 | 74 | 0.0 | 4.8 | 0.00 | 1.19 | 1.19 | 36 | 1010.0 |
| 20260508222837 | 20 | 355 | 0.0 | 11.3 | 0.00 | 1.19 | 1.19 | 40 | 1010.0 |
| 20260508222350 | 20 | 209 | 1.6 | 11.3 | 0.00 | 1.19 | 1.19 | 37 | 1010.1 |
| 20260508221841 | 20 | 333 | 3.2 | 11.3 | 0.00 | 1.19 | 1.19 | 36 | 1010.1 |
| 20260508221557 | 20 | 101 | 0.0 | 3.2 | 0.00 | 1.19 | 1.19 | 36 | 1010.0 |
| 20260508221354 | 20 | 101 | 1.6 | 8.0 | 0.00 | 1.19 | 1.19 | 38 | 1010.2 |
| 20260508220846 | 20 | 224 | 1.6 | 8.0 | 0.00 | 1.19 | 1.19 | 37 | 1010.2 |
| 20260508220339 | 20 | 327 | 3.2 | 4.8 | 0.00 | 1.19 | 1.19 | 40 | 1010.2 |
| 20260508220049 | 20 | 134 | 0.0 | 4.8 | 0.00 | 1.19 | 1.19 | 36 | 1010.1 |
| 20260508215848 | 20 | 57 | 1.6 | 3.2 | 0.00 | 1.19 | 1.19 | 36 | 1010.1 |
| 20260508215340 | 20 | 59 | 1.6 | 4.8 | 0.00 | 1.19 | 1.19 | 36 | 1010.2 |
| 20260508214852 | 20 | 332 | 1.6 | 6.4 | 0.00 | 1.19 | 1.19 | 37 | 1010.2 |
| 20260508214544 | 20 | 338 | 1.6 | 6.4 | 0.00 | 1.19 | 1.19 | 37 | 1010.2 |
| 20260508214343 | 20 | 253 | 3.2 | 6.4 | 0.00 | 1.19 | 1.19 | 36 | 1010.2 |
| 20260508213835 | 20 | 111 | 1.6 | 6.4 | 0.00 | 1.19 | 1.19 | 37 | 1010.2 |
| 20260508213347 | 20 | 40 | 1.6 | 8.0 | 0.00 | 1.19 | 1.19 | 36 | 1010.3 |
| 20260508213040 | 20 | 333 | 3.2 | 8.0 | 0.00 | 1.19 | 1.19 | 37 | 1010.3 |
| 20260508212839 | 20 | 290 | 4.8 | 8.0 | 0.00 | 1.19 | 1.19 | 36 | 1010.3 |
| 20260508212352 | 20 | 348 | 1.6 | 8.0 | 0.00 | 1.19 | 1.19 | 35 | 1010.4 |
| 20260508211904 | 20 | 92 | 1.6 | 8.0 | 0.00 | 1.19 | 1.19 | 35 | 1010.4 |
| 20260508211518 | 20 | 223 | 3.2 | 8.0 | 0.00 | 1.19 | 1.19 | 35 | 1010.5 |
| 20260508211415 | 20 | 291 | 3.2 | 8.0 | 0.00 | 1.19 | 1.19 | 35 | 1010.4 |
| 20260508210846 | 20 | 360 | 3.2 | 9.7 | 0.00 | 1.19 | 1.19 | 35 | 1010.4 |
| 20260508210340 | 20 | 38 | 3.2 | 9.7 | 0.00 | 1.19 | 1.19 | 35 | 1010.3 |
| 20260508210050 | 20 | 213 | 3.2 | 9.7 | 0.00 | 1.19 | 1.19 | 34 | 1010.4 |
| 20260508205849 | 20 | 78 | 0.0 | 6.4 | 0.00 | 1.24 | 1.19 | 36 | 1010.4 |
| 20260508205342 | 20 | 43 | 1.6 | 8.0 | 0.00 | 1.24 | 1.19 | 37 | 1010.5 |
| 20260508204855 | 21 | 331 | 526.3 | 526.3 | 0.00 | 0.00 | 1.19 | 34 | 1010.5 |
| 20260508204548 | 20 | 26 | 1.6 | 8.0 | 0.00 | 1.24 | 1.19 | 36 | 1010.6 |
| 20260508204347 | 20 | 71 | 1.6 | 8.0 | 0.00 | 1.24 | 1.19 | 34 | 1010.6 |
| 20260508203840 | 21 | 355 | 1.6 | 9.7 | 0.00 | 1.24 | 1.19 | 35 | 1010.7 |
| 20260508203337 | 20 | 47 | 0.0 | 6.4 | 0.00 | 1.24 | 1.19 | 36 | 1010.7 |
| 20260508203052 | 19 | 47 | 0.0 | 6.4 | 0.00 | 1.24 | 1.19 | 35 | 1010.7 |
| 20260508202850 | 20 | 126 | 0.0 | 6.4 | 0.00 | 1.24 | 1.19 | 36 | 1010.8 |
| 20260508202343 | 20 | 59 | 1.6 | 6.4 | 0.03 | 1.24 | 1.19 | 37 | 1010.9 |
| 20260508201855 | 20 | 53 | 1.6 | 8.0 | 0.03 | 1.24 | 1.19 | 36 | 1010.9 |
| 20260508201517 | 19 | 163 | 3.2 | 8.0 | 0.03 | 1.24 | 1.19 | 35 | 1010.9 |
| 20260508201408 | 20 | 187 | 3.2 | 6.4 | 0.03 | 1.24 | 1.19 | 35 | 1011.0 |
| 20260508200839 | 20 | 87 | 1.6 | 6.4 | 0.05 | 1.24 | 1.19 | 35 | 1011.0 |
| 20260508200352 | 20 | 40 | 1.6 | 8.0 | 0.05 | 1.24 | 1.19 | 34 | 1011.2 |
| 20260508200040 | 19 | 9 | 1.6 | 12.9 | 0.05 | 1.24 | 1.19 | 35 | 1011.1 |
| 20260508195839 | 20 | 247 | 3.2 | 12.9 | 0.05 | 1.24 | 1.19 | 34 | 1011.1 |
| 20260508195351 | 20 | 171 | 1.6 | 11.3 | 0.05 | 1.24 | 1.19 | 33 | 1011.1 |
| 20260508194901 | 20 | 142 | 3.2 | 16.1 | 0.08 | 1.24 | 1.19 | 33 | 1011.2 |
| 20260508194514 | 20 | 331 | 6.4 | 16.1 | 0.08 | 1.24 | 1.19 | 32 | 1011.1 |
| 20260508194413 | 21 | 32 | 4.8 | 16.1 | 0.10 | 1.24 | 1.19 | 32 | 1011.1 |
| 20260508193844 | 20 | 5 | 4.8 | 11.3 | 0.10 | 1.24 | 1.19 | 33 | 1011.1 |
| 20260508193336 | 20 | 139 | 3.2 | 11.3 | 0.10 | 1.24 | 1.19 | 33 | 1011.2 |
| 20260508193016 | 19 | 67 | 3.2 | 11.3 | 0.10 | 1.24 | 1.19 | 34 | 1011.1 |
| 20260508192909 | 20 | 111 | 4.8 | 11.3 | 0.10 | 1.24 | 1.19 | 33 | 1011.2 |
| 20260508192340 | 20 | 71 | 3.2 | 11.3 | 0.08 | 1.22 | 1.17 | 33 | 1011.4 |
| 20260508191852 | 19 | 167 | 1.6 | 0.0 | 0.00 | 0.00 | 1.17 | 34 | 1011.2 |
| 20260508191544 | 19 | 201 | 1.6 | 8.0 | 0.08 | 1.22 | 1.17 | 34 | 1011.3 |
| 20260508191343 | 19 | 57 | 3.2 | 8.0 | 0.08 | 1.22 | 1.17 | 33 | 1011.4 |
| 20260508190837 | 20 | 294 | 0.0 | 6.4 | 0.05 | 1.19 | 1.14 | 33 | 1011.4 |
| 20260508190410 | 20 | 78 | 1.6 | 11.3 | 0.10 | 1.19 | 1.14 | 32 | 1011.6 |